| time (UTC) | temp C | wind direction | speed KPH | gust KPH | rain 1hr cm | rain 24hr cm | rain mn cm | humidity % | barometer mb |
| 20260506033026 | 16 | 260 | 4.8 | 17.7 | 0.08 | 0.10 | 0.10 | 82 | 1023.6 |
| 20260506032511 | 17 | 255 | 4.8 | 12.9 | 0.08 | 0.10 | 0.10 | 81 | 1023.5 |
| 20260506032011 | 17 | 263 | 1.6 | 19.3 | 0.08 | 0.10 | 0.10 | 81 | 1023.7 |
| 20260506031530 | 17 | 263 | 4.8 | 19.3 | 0.08 | 0.10 | 0.10 | 79 | 1023.8 |
| 20260506031010 | 17 | 277 | 6.4 | 24.1 | 0.08 | 0.10 | 0.10 | 78 | 1023.9 |
| 20260506030513 | 17 | 313 | 8.0 | 24.1 | 0.05 | 0.08 | 0.08 | 76 | 1024.1 |
| 20260506030028 | 18 | 292 | 8.0 | 17.7 | 0.00 | 0.03 | 0.03 | 74 | 1024.0 |
| 20260506025510 | 18 | 294 | 8.0 | 17.7 | 0.00 | 0.03 | 0.03 | 73 | 1023.9 |
| 20260506025010 | 18 | 302 | 4.8 | 17.7 | 0.00 | 0.03 | 0.03 | 73 | 1024.0 |
| 20260506024531 | 18 | 296 | 6.4 | 17.7 | 0.00 | 0.03 | 0.03 | 73 | 1024.0 |
| 20260506024010 | 18 | 294 | 6.4 | 17.7 | 0.00 | 0.03 | 0.03 | 72 | 1024.1 |
| 20260506023508 | 18 | 307 | 6.4 | 16.1 | 0.00 | 0.03 | 0.03 | 72 | 1024.3 |
| 20260506023030 | 18 | 296 | 4.8 | 16.1 | 0.00 | 0.03 | 0.03 | 72 | 1024.4 |
| 20260506022510 | 18 | 294 | 4.8 | 16.1 | 0.00 | 0.03 | 0.03 | 72 | 1024.5 |
| 20260506022012 | 18 | 294 | 6.4 | 17.7 | 0.00 | 0.03 | 0.03 | 72 | 1024.6 |
| 20260506021533 | 18 | 298 | 3.2 | 17.7 | 0.00 | 0.03 | 0.03 | 72 | 1024.7 |
| 20260506021008 | 18 | 285 | 4.8 | 14.5 | 0.00 | 0.03 | 0.03 | 73 | 1024.6 |
| 20260506020507 | 18 | 284 | 3.2 | 14.5 | 0.00 | 0.03 | 0.03 | 73 | 1024.6 |
| 20260506020033 | 18 | 285 | 4.8 | 14.5 | 0.00 | 0.03 | 0.03 | 75 | 1024.6 |
| 20260506015507 | 17 | 282 | 3.2 | 14.5 | 0.00 | 0.03 | 0.03 | 76 | 1024.5 |
| 20260506015019 | 17 | 284 | 6.4 | 14.5 | 0.00 | 0.03 | 0.03 | 76 | 1024.6 |
| 20260506014528 | 17 | 271 | 4.8 | 17.7 | 0.00 | 0.03 | 0.03 | 79 | 1024.7 |
| 20260506014009 | 17 | 266 | 6.4 | 17.7 | 0.00 | 0.03 | 0.03 | 79 | 1024.8 |
| 20260506013508 | 16 | 281 | 4.8 | 12.9 | 0.00 | 0.03 | 0.03 | 80 | 1024.9 |
| 20260506013030 | 16 | 284 | 4.8 | 12.9 | 0.00 | 0.03 | 0.03 | 81 | 1024.9 |
| 20260506012511 | 16 | 281 | 4.8 | 12.9 | 0.00 | 0.03 | 0.03 | 81 | 1024.8 |
| 20260506012008 | 16 | 276 | 4.8 | 12.9 | 0.00 | 0.03 | 0.03 | 82 | 1024.9 |
| 20260506011531 | 16 | 295 | 1.6 | 12.9 | 0.00 | 0.03 | 0.03 | 83 | 1024.9 |
| 20260506011010 | 16 | 0 | 0.0 | 4.8 | 0.00 | 0.03 | 0.03 | 83 | 1024.9 |
| 20260506010511 | 16 | 0 | 0.0 | 12.9 | 0.00 | 0.03 | 0.03 | 83 | 1024.8 |
| 20260506010044 | 16 | 297 | 3.2 | 12.9 | 0.00 | 0.03 | 0.03 | 83 | 1025.0 |
| 20260506005508 | 16 | 281 | 0.0 | 4.8 | 0.00 | 0.03 | 0.03 | 84 | 1024.9 |
| 20260506005008 | 16 | 0 | 0.0 | 4.8 | 0.00 | 0.03 | 0.03 | 84 | 1025.1 |
| 20260506004527 | 16 | 274 | 0.0 | 4.8 | 0.00 | 0.03 | 0.03 | 83 | 1025.1 |
| 20260506004010 | 16 | 0 | 1.6 | 4.8 | 0.00 | 0.03 | 0.03 | 83 | 1025.1 |
| 20260506003512 | 16 | 0 | 0.0 | 3.2 | 0.00 | 0.03 | 0.03 | 83 | 1025.1 |
| 20260506003026 | 15 | 273 | 0.0 | 4.8 | 0.00 | 0.03 | 0.03 | 83 | 1025.2 |
| 20260506002507 | 15 | 273 | 0.0 | 4.8 | 0.00 | 0.03 | 0.03 | 83 | 1025.2 |
| 20260506002011 | 15 | 0 | 0.0 | 4.8 | 0.00 | 0.03 | 0.03 | 83 | 1025.1 |
| 20260506001528 | 15 | 273 | 0.0 | 4.8 | 0.00 | 0.03 | 0.03 | 83 | 1025.1 |
| 20260506001009 | 15 | 0 | 0.0 | 6.4 | 0.00 | 0.00 | 0.00 | 83 | 1025.0 |
| 20260506000511 | 15 | 0 | 0.0 | 6.4 | 0.00 | 0.00 | 0.00 | 83 | 1025.1 |
| 20260506000027 | 15 | 0 | 0.0 | 6.4 | 0.00 | 0.00 | 0.00 | 83 | 1025.2 |
| 20260505235509 | 15 | 0 | 0.0 | 3.2 | 0.00 | 0.00 | 0.00 | 83 | 1025.0 |
| 20260505235027 | 16 | 273 | 0.0 | 3.2 | 0.00 | 0.00 | 0.00 | 84 | 1025.2 |
| 20260505234536 | 16 | 0 | 0.0 | 6.4 | 0.00 | 0.00 | 0.00 | 84 | 1025.2 |
| 20260505234012 | 16 | 0 | 0.0 | 6.4 | 0.00 | 0.00 | 0.00 | 85 | 1025.1 |
| 20260505233509 | 15 | 273 | 0.0 | 9.7 | 0.00 | 0.00 | 0.00 | 85 | 1025.2 |
| 20260505233036 | 15 | 272 | 0.0 | 9.7 | 0.00 | 0.00 | 0.00 | 84 | 1025.2 |
| 20260505232511 | 15 | 271 | 1.6 | 9.7 | 0.00 | 0.00 | 0.00 | 84 | 1025.2 |
| 20260505232009 | 15 | 259 | 0.0 | 4.8 | 0.00 | 0.00 | 0.00 | 84 | 1025.3 |
| 20260505231532 | 15 | 0 | 0.0 | 4.8 | 0.00 | 0.00 | 0.00 | 84 | 1025.3 |
| 20260505231009 | 14 | 0 | 0.0 | 4.8 | 0.00 | 0.00 | 0.00 | 84 | 1025.2 |
| 20260505230511 | 14 | 0 | 0.0 | 4.8 | 0.00 | 0.00 | 0.00 | 83 | 1025.1 |
| 20260505230028 | 14 | 259 | 0.0 | 4.8 | 0.00 | 0.00 | 0.00 | 83 | 1025.2 |
| 20260505225512 | 14 | 0 | 0.0 | 3.2 | 0.00 | 0.00 | 0.00 | 84 | 1025.1 |
| 20260505225013 | 14 | 0 | 0.0 | 6.4 | 0.00 | 0.00 | 0.00 | 83 | 1025.1 |
| 20260505224533 | 14 | 0 | 0.0 | 6.4 | 0.00 | 0.00 | 0.00 | 83 | 1024.9 |
| 20260505224011 | 14 | 258 | 0.0 | 6.4 | 0.00 | 0.00 | 0.00 | 83 | 1024.9 |
| 20260505223516 | 14 | 0 | 0.0 | 6.4 | 0.00 | 0.00 | 0.00 | 83 | 1024.8 |
| 20260505223030 | 13 | 250 | 1.6 | 6.4 | 0.00 | 0.00 | 0.00 | 83 | 1024.7 |
| 20260505222516 | 13 | 0 | 0.0 | 3.2 | 0.00 | 0.00 | 0.00 | 82 | 1024.8 |
| 20260505222013 | 13 | 249 | 0.0 | 3.2 | 0.00 | 0.00 | 0.00 | 82 | 1024.6 |
| 20260505221528 | 13 | 0 | 0.0 | 3.2 | 0.00 | 0.00 | 0.00 | 82 | 1024.7 |
| 20260505221020 | 13 | 0 | 0.0 | 3.2 | 0.00 | 0.00 | 0.00 | 82 | 1024.6 |
| 20260505220510 | 13 | 249 | 0.0 | 3.2 | 0.00 | 0.00 | 0.00 | 82 | 1024.5 |
| 20260505220027 | 13 | 0 | 0.0 | 3.2 | 0.00 | 0.00 | 0.00 | 82 | 1024.6 |
| 20260505215509 | 13 | 0 | 0.0 | 3.2 | 0.00 | 0.00 | 0.00 | 81 | 1024.4 |
| 20260505215012 | 13 | 0 | 0.0 | 1.6 | 0.00 | 0.00 | 0.00 | 81 | 1024.4 |
| 20260505214556 | 13 | 0 | 0.0 | 1.6 | 0.00 | 0.00 | 0.00 | 81 | 1024.4 |
| 20260505214014 | 13 | 0 | 0.0 | 3.2 | 0.00 | 0.00 | 0.00 | 81 | 1024.2 |
| 20260505213513 | 13 | 0 | 0.0 | 3.2 | 0.00 | 0.00 | 0.00 | 81 | 1024.3 |
| 20260505213030 | 13 | 0 | 0.0 | 1.6 | 0.00 | 0.00 | 0.00 | 81 | 1024.2 |
| 20260505212518 | 13 | 0 | 0.0 | 4.8 | 0.00 | 0.00 | 0.00 | 81 | 1024.2 |
| 20260505212014 | 13 | 0 | 0.0 | 4.8 | 0.00 | 0.00 | 0.00 | 81 | 1024.1 |
| 20260505211531 | 13 | 0 | 0.0 | 3.2 | 0.00 | 0.00 | 0.00 | 81 | 1024.2 |
| 20260505211011 | 13 | 0 | 0.0 | 1.6 | 0.00 | 0.00 | 0.00 | 81 | 1024.1 |
| 20260505210510 | 13 | 0 | 0.0 | 3.2 | 0.00 | 0.00 | 0.00 | 81 | 1024.2 |
| 20260505210030 | 13 | 0 | 0.0 | 3.2 | 0.00 | 0.00 | 0.00 | 81 | 1024.2 |
| 20260505205509 | 13 | 0 | 0.0 | 1.6 | 0.00 | 0.00 | 0.00 | 81 | 1024.2 |
| 20260505205015 | 13 | 0 | 0.0 | 4.8 | 0.00 | 0.00 | 0.00 | 81 | 1024.2 |
| 20260505204528 | 13 | 0 | 0.0 | 4.8 | 0.00 | 0.00 | 0.00 | 81 | 1024.1 |
| 20260505204017 | 13 | 0 | 0.0 | 4.8 | 0.00 | 0.00 | 0.00 | 81 | 1024.2 |
| 20260505203512 | 13 | 0 | 0.0 | 4.8 | 0.00 | 0.00 | 0.00 | 81 | 1024.1 |
| 20260505203035 | 13 | 0 | 0.0 | 4.8 | 0.00 | 0.00 | 0.00 | 81 | 1024.2 |
| 20260505202513 | 13 | 0 | 0.0 | 4.8 | 0.00 | 0.00 | 0.00 | 81 | 1024.1 |
| 20260505202013 | 13 | 0 | 0.0 | 4.8 | 0.00 | 0.00 | 0.00 | 81 | 1024.1 |
| 20260505201535 | 13 | 0 | 0.0 | 4.8 | 0.00 | 0.00 | 0.00 | 81 | 1024.0 |
| 20260505201012 | 13 | 248 | 0.0 | 4.8 | 0.00 | 0.00 | 0.00 | 81 | 1024.0 |
| 20260505200509 | 13 | 0 | 0.0 | 3.2 | 0.00 | 0.00 | 0.00 | 81 | 1024.1 |
| 20260505200029 | 13 | 248 | 0.0 | 3.2 | 0.00 | 0.00 | 0.00 | 81 | 1024.0 |
| 20260505195513 | 13 | 0 | 0.0 | 3.2 | 0.00 | 0.00 | 0.00 | 81 | 1024.1 |
| 20260505195010 | 13 | 0 | 0.0 | 3.2 | 0.00 | 0.00 | 0.00 | 81 | 1024.0 |
| 20260505194528 | 13 | 0 | 0.0 | 3.2 | 0.00 | 0.00 | 0.00 | 81 | 1024.0 |
| 20260505194014 | 13 | 0 | 0.0 | 0.0 | 0.00 | 0.00 | 0.00 | 81 | 1024.0 |
| 20260505193510 | 13 | 0 | 0.0 | 1.6 | 0.00 | 0.00 | 0.00 | 81 | 1024.1 |
| 20260505193031 | 13 | 0 | 0.0 | 4.8 | 0.00 | 0.00 | 0.00 | 81 | 1024.1 |
| 20260505192510 | 13 | 248 | 0.0 | 4.8 | 0.00 | 0.03 | 0.00 | 81 | 1024.0 |
| 20260505192009 | 13 | 248 | 0.0 | 4.8 | 0.00 | 0.03 | 0.00 | 81 | 1024.1 |
| 20260505191530 | 13 | 0 | 0.0 | 4.8 | 0.00 | 0.03 | 0.00 | 81 | 1024.0 |
| 20260505191011 | 13 | 248 | 0.0 | 4.8 | 0.00 | 0.03 | 0.00 | 81 | 1024.0 |
| 20260505190510 | 13 | 248 | 0.0 | 4.8 | 0.00 | 0.03 | 0.00 | 81 | 1024.0 |
| 20260505190027 | 13 | 0 | 0.0 | 4.8 | 0.00 | 0.03 | 0.00 | 81 | 1024.1 |
| 20260505185515 | 13 | 0 | 0.0 | 4.8 | 0.00 | 0.03 | 0.00 | 81 | 1024.1 |
| 20260505185015 | 13 | 248 | 0.0 | 4.8 | 0.00 | 0.03 | 0.00 | 81 | 1024.1 |
| 20260505184530 | 13 | 248 | 0.0 | 3.2 | 0.00 | 0.03 | 0.00 | 82 | 1024.0 |
| 20260505184012 | 13 | 0 | 0.0 | 3.2 | 0.00 | 0.03 | 0.00 | 82 | 1024.1 |
| 20260505183511 | 13 | 0 | 0.0 | 3.2 | 0.00 | 0.03 | 0.00 | 82 | 1024.2 |
| 20260505183028 | 13 | 246 | 0.0 | 3.2 | 0.00 | 0.03 | 0.00 | 82 | 1024.2 |
| 20260505182517 | 13 | 0 | 0.0 | 1.6 | 0.00 | 0.03 | 0.00 | 82 | 1024.1 |
| 20260505182010 | 13 | 0 | 0.0 | 3.2 | 0.00 | 0.03 | 0.00 | 82 | 1024.1 |
| 20260505181529 | 13 | 0 | 0.0 | 3.2 | 0.00 | 0.03 | 0.00 | 82 | 1024.1 |
| 20260505181012 | 13 | 0 | 0.0 | 3.2 | 0.00 | 0.03 | 0.00 | 82 | 1024.1 |
| 20260505180510 | 13 | 0 | 0.0 | 1.6 | 0.00 | 0.03 | 0.00 | 81 | 1024.1 |
| 20260505180054 | 13 | 0 | 0.0 | 1.6 | 0.00 | 0.03 | 0.00 | 81 | 1024.1 |
| 20260505175510 | 13 | 0 | 0.0 | 4.8 | 0.00 | 0.03 | 0.00 | 81 | 1024.3 |
| 20260505175015 | 13 | 0 | 0.0 | 4.8 | 0.00 | 0.03 | 0.00 | 81 | 1024.3 |
| 20260505174549 | 13 | 0 | 0.0 | 1.6 | 0.00 | 0.03 | 0.00 | 81 | 1024.2 |
| 20260505174012 | 13 | 0 | 0.0 | 1.6 | 0.00 | 0.03 | 0.00 | 81 | 1024.2 |
| 20260505173513 | 13 | 0 | 0.0 | 0.0 | 0.00 | 0.03 | 0.00 | 81 | 1024.4 |
| 20260505173033 | 13 | 0 | 0.0 | 1.6 | 0.00 | 0.03 | 0.00 | 81 | 1024.3 |
| 20260505172511 | 13 | 0 | 0.0 | 1.6 | 0.00 | 0.08 | 0.00 | 81 | 1024.4 |
| 20260505172012 | 13 | 0 | 0.0 | 1.6 | 0.00 | 0.08 | 0.00 | 81 | 1024.4 |
| 20260505171530 | 13 | 0 | 0.0 | 1.6 | 0.00 | 0.08 | 0.00 | 81 | 1024.5 |
| 20260505171011 | 13 | 0 | 0.0 | 1.6 | 0.00 | 0.08 | 0.00 | 81 | 1024.5 |
| 20260505170510 | 13 | 0 | 0.0 | 1.6 | 0.00 | 0.08 | 0.00 | 81 | 1024.6 |
| 20260505170028 | 13 | 0 | 0.0 | 1.6 | 0.00 | 0.08 | 0.00 | 81 | 1024.5 |
| 20260505165513 | 13 | 0 | 0.0 | 1.6 | 0.00 | 0.08 | 0.00 | 81 | 1024.7 |
| 20260505165011 | 13 | 0 | 0.0 | 3.2 | 0.00 | 0.08 | 0.00 | 81 | 1024.6 |
| 20260505164529 | 13 | 0 | 0.0 | 3.2 | 0.00 | 0.08 | 0.00 | 81 | 1024.7 |
| 20260505164012 | 13 | 246 | 0.0 | 1.6 | 0.00 | 0.08 | 0.00 | 81 | 1024.7 |
| 20260505163510 | 13 | 0 | 0.0 | 1.6 | 0.00 | 0.08 | 0.00 | 81 | 1024.7 |
| 20260505163029 | 13 | 0 | 0.0 | 1.6 | 0.00 | 0.08 | 0.00 | 81 | 1024.8 |
| 20260505162512 | 13 | 0 | 0.0 | 1.6 | 0.00 | 0.08 | 0.00 | 81 | 1024.7 |
| 20260505162010 | 13 | 0 | 0.0 | 0.0 | 0.00 | 0.08 | 0.00 | 81 | 1024.9 |
| 20260505161528 | 13 | 0 | 0.0 | 1.6 | 0.00 | 0.08 | 0.00 | 81 | 1024.9 |
| 20260505161009 | 13 | 0 | 0.0 | 1.6 | 0.00 | 0.08 | 0.00 | 81 | 1024.9 |
| 20260505160511 | 13 | 0 | 0.0 | 1.6 | 0.00 | 0.08 | 0.00 | 81 | 1025.0 |
| 20260505153029 | 14 | 0 | 0.0 | 3.2 | 0.00 | 0.08 | 0.00 | 80 | 1025.1 |
| 20260505152511 | 14 | 246 | 0.0 | 4.8 | 0.00 | 0.08 | 0.00 | 80 | 1025.1 |
| 20260505152011 | 14 | 0 | 0.0 | 4.8 | 0.00 | 0.08 | 0.00 | 80 | 1025.0 |
| 20260505151532 | 14 | 0 | 0.0 | 1.6 | 0.00 | 0.08 | 0.00 | 80 | 1025.1 |
| 20260505151011 | 14 | 0 | 0.0 | 0.0 | 0.00 | 0.08 | 0.00 | 80 | 1025.1 |
| 20260505150513 | 14 | 0 | 0.0 | 0.0 | 0.00 | 0.08 | 0.00 | 79 | 1025.2 |
| 20260505140510 | 13 | 0 | 0.0 | 0.0 | 0.00 | 0.08 | 0.08 | 77 | 1025.3 |
| 20260505125011 | 14 | 0 | 0.0 | 0.0 | 0.00 | 0.08 | 0.08 | 76 | 1026.0 |
| 20260505124532 | 14 | 0 | 0.0 | 0.0 | 0.00 | 0.08 | 0.08 | 76 | 1025.9 |
| 20260505124011 | 14 | 0 | 0.0 | 0.0 | 0.00 | 0.08 | 0.08 | 76 | 1025.9 |
| 20260505123510 | 14 | 0 | 0.0 | 0.0 | 0.00 | 0.08 | 0.08 | 76 | 1025.9 |
| 20260505123029 | 14 | 0 | 0.0 | 0.0 | 0.00 | 0.08 | 0.08 | 76 | 1025.9 |
| 20260505122511 | 14 | 0 | 0.0 | 0.0 | 0.00 | 0.08 | 0.08 | 76 | 1025.9 |
| 20260505122011 | 14 | 0 | 0.0 | 0.0 | 0.00 | 0.08 | 0.08 | 76 | 1025.9 |
| 20260505121530 | 14 | 0 | 0.0 | 0.0 | 0.00 | 0.08 | 0.08 | 76 | 1025.9 |
| 20260505121009 | 14 | 0 | 0.0 | 0.0 | 0.00 | 0.08 | 0.08 | 76 | 1025.9 |
| 20260505120508 | 14 | 0 | 0.0 | 0.0 | 0.00 | 0.08 | 0.08 | 76 | 1025.8 |
| 20260505120032 | 14 | 0 | 0.0 | 0.0 | 0.00 | 0.08 | 0.08 | 76 | 1026.0 |
| 20260505115513 | 13 | 0 | 0.0 | 1.6 | 0.00 | 0.08 | 0.08 | 76 | 1025.8 |
| 20260505115012 | 13 | 0 | 0.0 | 3.2 | 0.00 | 0.08 | 0.08 | 76 | 1025.7 |
| 20260505114530 | 13 | 0 | 0.0 | 3.2 | 0.00 | 0.08 | 0.08 | 76 | 1025.8 |
| 20260505114010 | 13 | 0 | 0.0 | 3.2 | 0.00 | 0.08 | 0.08 | 76 | 1025.7 |
| 20260505113513 | 13 | 0 | 0.0 | 1.6 | 0.00 | 0.08 | 0.08 | 76 | 1025.8 |
| 20260505113027 | 13 | 0 | 0.0 | 1.6 | 0.00 | 0.08 | 0.08 | 76 | 1025.8 |
| 20260505112514 | 13 | 0 | 0.0 | 3.2 | 0.00 | 0.18 | 0.08 | 75 | 1025.8 |
| 20260505112011 | 13 | 0 | 0.0 | 3.2 | 0.00 | 0.18 | 0.08 | 75 | 1025.7 |
| 20260505111528 | 13 | 0 | 0.0 | 3.2 | 0.00 | 0.18 | 0.08 | 75 | 1025.9 |
| 20260505111010 | 13 | 0 | 0.0 | 3.2 | 0.00 | 0.18 | 0.08 | 75 | 1025.9 |
| 20260505110512 | 13 | 0 | 0.0 | 1.6 | 0.00 | 0.18 | 0.08 | 75 | 1026.0 |
| 20260505102009 | 13 | 0 | 0.0 | 0.0 | 0.00 | 0.18 | 0.08 | 73 | 1025.7 |
| 20260505101534 | 13 | 0 | 0.0 | 0.0 | 0.00 | 0.18 | 0.08 | 73 | 1025.8 |
| 20260505101008 | 13 | 0 | 0.0 | 0.0 | 0.00 | 0.18 | 0.08 | 73 | 1025.8 |
| 20260505100511 | 13 | 0 | 0.0 | 0.0 | 0.00 | 0.18 | 0.08 | 73 | 1025.8 |
| 20260505100028 | 13 | 0 | 0.0 | 4.8 | 0.00 | 0.18 | 0.08 | 73 | 1025.8 |
| 20260505095512 | 13 | 0 | 0.0 | 4.8 | 0.00 | 0.18 | 0.08 | 72 | 1025.8 |
| 20260505095014 | 13 | 0 | 0.0 | 0.0 | 0.00 | 0.18 | 0.08 | 72 | 1025.8 |
| 20260505094526 | 13 | 0 | 0.0 | 0.0 | 0.00 | 0.18 | 0.08 | 71 | 1025.8 |
| 20260505094008 | 13 | 0 | 0.0 | 0.0 | 0.00 | 0.18 | 0.08 | 71 | 1025.9 |
| 20260505093509 | 13 | 0 | 0.0 | 0.0 | 0.00 | 0.18 | 0.08 | 71 | 1025.8 |
| 20260505093035 | 13 | 0 | 0.0 | 0.0 | 0.00 | 0.18 | 0.08 | 70 | 1025.8 |
| 20260505092509 | 13 | 0 | 0.0 | 0.0 | 0.00 | 0.18 | 0.08 | 70 | 1025.7 |
| 20260505092012 | 13 | 0 | 0.0 | 0.0 | 0.00 | 0.18 | 0.08 | 70 | 1025.7 |
| 20260505091528 | 13 | 0 | 0.0 | 0.0 | 0.00 | 0.18 | 0.08 | 69 | 1025.6 |
| 20260505091014 | 13 | 0 | 0.0 | 0.0 | 0.00 | 0.18 | 0.08 | 69 | 1025.6 |
| 20260505090508 | 13 | 0 | 0.0 | 0.0 | 0.00 | 0.18 | 0.08 | 69 | 1025.6 |
| 20260505090030 | 13 | 0 | 0.0 | 0.0 | 0.00 | 0.18 | 0.08 | 69 | 1025.5 |
| 20260505085512 | 13 | 0 | 0.0 | 0.0 | 0.00 | 0.18 | 0.08 | 68 | 1025.4 |
| 20260505085012 | 13 | 0 | 0.0 | 0.0 | 0.00 | 0.18 | 0.08 | 68 | 1025.3 |
| 20260505084529 | 13 | 0 | 0.0 | 0.0 | 0.00 | 0.18 | 0.08 | 67 | 1025.3 |
| 20260505084008 | 13 | 0 | 0.0 | 0.0 | 0.00 | 0.18 | 0.08 | 67 | 1025.2 |
| 20260505083513 | 14 | 0 | 0.0 | 0.0 | 0.00 | 0.18 | 0.08 | 67 | 1025.2 |
| 20260505083033 | 14 | 0 | 0.0 | 0.0 | 0.00 | 0.18 | 0.08 | 66 | 1025.1 |
| 20260505082510 | 14 | 0 | 0.0 | 0.0 | 0.00 | 0.18 | 0.08 | 65 | 1025.1 |
| 20260505082009 | 14 | 0 | 0.0 | 0.0 | 0.00 | 0.18 | 0.08 | 65 | 1025.1 |
| 20260505081530 | 15 | 0 | 0.0 | 0.0 | 0.00 | 0.18 | 0.08 | 65 | 1025.1 |
| 20260505081012 | 15 | 0 | 0.0 | 0.0 | 0.00 | 0.18 | 0.08 | 64 | 1025.0 |
| 20260505080511 | 15 | 0 | 0.0 | 0.0 | 0.00 | 0.18 | 0.08 | 64 | 1025.0 |
| 20260505080028 | 15 | 0 | 0.0 | 0.0 | 0.00 | 0.18 | 0.08 | 64 | 1024.9 |
| 20260505075511 | 15 | 0 | 0.0 | 0.0 | 0.00 | 0.18 | 0.08 | 64 | 1024.9 |
| 20260505075011 | 15 | 0 | 0.0 | 0.0 | 0.00 | 0.18 | 0.08 | 64 | 1024.9 |
| 20260505074530 | 16 | 0 | 0.0 | 1.6 | 0.00 | 0.18 | 0.08 | 64 | 1024.9 |
| 20260505074012 | 16 | 0 | 0.0 | 3.2 | 0.00 | 0.18 | 0.08 | 64 | 1024.9 |
| 20260505073513 | 16 | 0 | 0.0 | 3.2 | 0.00 | 0.18 | 0.08 | 64 | 1024.9 |
| 20260505073031 | 16 | 0 | 0.0 | 4.8 | 0.00 | 0.18 | 0.08 | 64 | 1024.9 |
| 20260505072514 | 16 | 0 | 0.0 | 6.4 | 0.00 | 0.18 | 0.08 | 64 | 1024.9 |
| 20260505072011 | 16 | 246 | 0.0 | 8.0 | 0.00 | 0.18 | 0.08 | 63 | 1024.8 |
| 20260505071526 | 16 | 0 | 1.6 | 8.0 | 0.00 | 0.18 | 0.08 | 63 | 1024.8 |
| 20260505071008 | 16 | 245 | 1.6 | 8.0 | 0.00 | 0.18 | 0.08 | 63 | 1024.8 |
| 20260505070514 | 16 | 0 | 0.0 | 6.4 | 0.00 | 0.18 | 0.08 | 63 | 1024.8 |
| 20260505070037 | 16 | 0 | 1.6 | 8.0 | 0.00 | 0.18 | 0.08 | 64 | 1024.8 |
| 20260505065509 | 16 | 0 | 0.0 | 8.0 | 0.00 | 0.18 | 0.08 | 64 | 1024.8 |
| 20260505065008 | 16 | 245 | 1.6 | 11.3 | 0.00 | 0.18 | 0.08 | 64 | 1024.7 |
| 20260505064530 | 16 | 247 | 0.0 | 11.3 | 0.00 | 0.18 | 0.08 | 64 | 1024.8 |
| 20260505064008 | 16 | 244 | 1.6 | 11.3 | 0.00 | 0.18 | 0.08 | 64 | 1024.8 |
| 20260505063508 | 17 | 241 | 1.6 | 8.0 | 0.00 | 0.18 | 0.08 | 64 | 1024.8 |
| 20260505063030 | 17 | 242 | 1.6 | 8.0 | 0.00 | 0.18 | 0.08 | 63 | 1024.7 |
| 20260505062519 | 17 | 246 | 1.6 | 11.3 | 0.00 | 0.18 | 0.08 | 63 | 1024.7 |
| 20260505062013 | 17 | 0 | 1.6 | 11.3 | 0.00 | 0.18 | 0.08 | 62 | 1024.8 |
| 20260505061538 | 17 | 211 | 1.6 | 8.0 | 0.00 | 0.18 | 0.08 | 62 | 1024.7 |
| 20260505061008 | 17 | 202 | 1.6 | 8.0 | 0.00 | 0.18 | 0.08 | 62 | 1024.6 |
| 20260505060512 | 17 | 186 | 1.6 | 8.0 | 0.00 | 0.18 | 0.08 | 63 | 1024.6 |
| 20260505060027 | 18 | 149 | 1.6 | 12.9 | 0.00 | 0.18 | 0.08 | 63 | 1024.5 |
| 20260505055517 | 18 | 245 | 1.6 | 12.9 | 0.00 | 0.18 | 0.08 | 62 | 1024.4 |
| 20260505055016 | 17 | 251 | 3.2 | 12.9 | 0.00 | 0.18 | 0.08 | 61 | 1024.5 |
| 20260505054527 | 17 | 267 | 1.6 | 12.9 | 0.00 | 0.18 | 0.08 | 60 | 1024.5 |
| 20260505054014 | 17 | 267 | 3.2 | 12.9 | 0.00 | 0.18 | 0.08 | 60 | 1024.3 |
| 20260505053511 | 17 | 263 | 1.6 | 9.7 | 0.00 | 0.18 | 0.08 | 59 | 1024.3 |
| 20260505053039 | 17 | 263 | 3.2 | 11.3 | 0.00 | 0.18 | 0.08 | 59 | 1024.3 |
| 20260505052510 | 17 | 265 | 3.2 | 11.3 | 0.00 | 0.18 | 0.08 | 59 | 1024.3 |
| 20260505052012 | 17 | 260 | 3.2 | 9.7 | 0.00 | 0.18 | 0.08 | 59 | 1024.3 |
| 20260505051552 | 17 | 269 | 3.2 | 9.7 | 0.00 | 0.18 | 0.08 | 60 | 1024.3 |
| 20260505051011 | 17 | 263 | 1.6 | 4.8 | 0.00 | 0.18 | 0.08 | 61 | 1024.1 |
| 20260505050516 | 17 | 263 | 0.0 | 4.8 | 0.00 | 0.18 | 0.08 | 62 | 1024.1 |
| 20260505041532 | 17 | 263 | 1.6 | 9.7 | 0.00 | 0.18 | 0.08 | 64 | 1024.3 |
| 20260505041009 | 17 | 263 | 1.6 | 9.7 | 0.00 | 0.18 | 0.08 | 64 | 1024.4 |
| 20260505040509 | 17 | 268 | 1.6 | 9.7 | 0.00 | 0.18 | 0.08 | 64 | 1024.4 |
| 20260505040030 | 17 | 272 | 3.2 | 9.7 | 0.00 | 0.18 | 0.08 | 64 | 1024.4 |
| 20260505035508 | 17 | 282 | 3.2 | 6.4 | 0.00 | 0.18 | 0.08 | 65 | 1024.5 |
| 20260505035007 | 17 | 286 | 1.6 | 9.7 | 0.00 | 0.18 | 0.08 | 65 | 1024.6 |
| 20260505034530 | 17 | 287 | 3.2 | 9.7 | 0.00 | 0.18 | 0.08 | 65 | 1024.7 |
| 20260505034010 | 17 | 290 | 3.2 | 8.0 | 0.00 | 0.18 | 0.08 | 65 | 1024.8 |
| 20260505033511 | 17 | 293 | 3.2 | 8.0 | 0.00 | 0.18 | 0.08 | 65 | 1024.8 |